GW6206 Weather Reports


time (UTC)temp
F
wind
direction
speed
knots
gust
knots
rain 1hr
in
rain 24hr
in
rain mn
in
humidity
%
barometer
mb
20260505070017 54 90 4.3 9.6 0.00 0.01 0.00 64 1009.9
20260505065016 53 68 4.3 8.7 0.00 0.01 0.00 70 1009.5
20260505064016 53 113 0.9 5.2 0.00 0.01 0.00 77 1009.8
20260505063018 54 113 3.5 7.0 0.00 0.01 0.00 73 1010.1
20260505062017 54 135 3.5 7.0 0.00 0.01 0.00 72 1010.2
20260505061016 54 180 3.5 7.0 0.00 0.01 0.00 72 1010.2
20260505060016 54 203 2.6 5.2 0.00 0.01 0.01 74 1010.3
20260505055024 54 180 1.7 4.3 0.00 0.01 0.01 74 1010.1
20260505054017 54 135 1.7 3.5 0.00 0.01 0.01 73 1009.6
20260505053016 55 135 0.9 2.6 0.00 0.01 0.01 71 1009.7
20260505052016 55 113 0.9 3.5 0.00 0.01 0.01 71 1010.1
20260505051017 55 180 2.6 6.1 0.00 0.01 0.01 70 1009.9
20260505041017 58 180 2.6 6.1 0.00 0.01 0.01 61 1008.9
20260505040018 58 158 4.3 10.4 0.00 0.01 0.01 59 1008.8
20260505035038 59 158 3.5 11.3 0.00 0.01 0.01 57 1008.7
20260505034017 60 135 6.1 14.8 0.00 0.01 0.01 51 1008.2
20260505033019 60 135 6.1 12.2 0.00 0.01 0.01 48 1007.7
20260505032018 61 180 4.3 12.2 0.00 0.01 0.01 43 1007.4
20260505031019 61 135 1.7 3.5 0.00 0.01 0.01 40 1006.7
20260505030017 62 0.0 1.7 0.00 0.01 0.01 39 1006.4
20260505025020 62 90 0.9 2.6 0.00 0.01 0.01 38 1006.2
20260505024017 62 90 0.9 5.2 0.00 0.01 0.01 38 1005.7
20260505023017 62 90 5.2 10.4 0.00 0.01 0.01 38 1005.6
20260505022018 62 90 6.1 9.6 0.00 0.01 0.01 39 1005.6
20260505021038 63 90 4.3 13.0 0.00 0.01 0.01 41 1005.5
20260505020017 63 90 3.5 6.1 0.00 0.01 0.01 40 1005.4
20260505015038 62 90 7.0 12.2 0.00 0.01 0.01 42 1005.1
20260505014017 62 113 10.4 16.5 0.00 0.01 0.01 44 1005.6
20260505013038 62 113 11.3 20.9 0.00 0.01 0.01 43 1005.6
20260505012017 63 113 8.7 13.9 0.01 0.01 0.01 43 1005.7
20260505011017 62 90 3.5 7.0 0.01 0.01 0.01 46 1005.9
20260505010016 62 68 4.3 10.4 0.01 0.01 0.01 46 1006.1
20260505005018 61 90 5.2 9.6 0.01 0.01 0.01 48 1006.2
20260505004023 61 113 4.3 7.8 0.01 0.01 0.01 51 1006.3
20260505003018 61 113 6.1 10.4 0.01 0.01 0.01 53 1006.4
20260505002019 63 135 7.0 12.2 0.00 0.00 0.00 49 1006.6
20260505001018 66 158 2.6 6.1 0.00 0.00 0.00 41 1007.0
20260505000017 69 225 2.6 5.2 0.00 0.00 0.00 35 1007.1
20260504235017 70 225 2.6 6.1 0.00 0.00 0.00 30 1007.3
20260504234038 71 135 1.7 4.3 0.00 0.00 0.00 30 1007.3
20260504233018 71 158 2.6 6.1 0.00 0.00 0.00 30 1007.2
20260504232017 73 135 4.3 9.6 0.00 0.00 0.00 30 1007.4
20260504231058 72 315 2.6 7.8 0.00 0.00 0.00 29 1007.3
20260504230016 71 225 3.5 6.1 0.00 0.00 0.00 29 1006.9
20260504225039 72 315 7.8 12.2 0.00 0.00 0.00 27 1007.3
20260504224018 73 315 4.3 8.7 0.00 0.00 0.00 27 1006.9
20260504223016 73 293 1.7 4.3 0.00 0.00 0.00 26 1007.1
20260504222018 73 225 3.5 9.6 0.00 0.00 0.00 25 1007.2
20260504221018 73 225 4.3 8.7 0.00 0.00 0.00 27 1007.6
20260504220017 74 270 3.5 12.2 0.00 0.00 0.00 28 1008.1
20260504215016 76 203 4.3 8.7 0.00 0.00 0.00 23 1008.2
20260504214017 76 293 1.7 4.3 0.00 0.00 0.00 21 1008.3
20260504213017 76 158 3.5 7.8 0.00 0.00 0.00 24 1008.6
20260504212018 75 203 3.5 7.0 0.00 0.00 0.00 28 1008.3
20260504211023 75 225 5.2 10.4 0.00 0.00 0.00 27 1008.8
20260504210017 75 180 6.1 15.6 0.00 0.00 0.00 27 1008.8
20260504205038 75 225 3.5 8.7 0.00 0.00 0.00 25 1008.9
20260504204018 76 180 3.5 9.6 0.00 0.00 0.00 24 1008.6
20260504203018 74 225 3.5 7.0 0.00 0.00 0.00 25 1008.7
20260504202020 74 248 3.5 7.0 0.00 0.00 0.00 26 1008.8
20260504201017 75 248 3.5 7.8 0.00 0.00 0.00 27 1008.9
20260504200019 74 203 2.6 6.1 0.00 0.00 0.00 28 1009.0
20260504195038 74 158 0.9 6.1 0.00 0.00 0.00 28 1009.2
20260504194017 74 180 5.2 9.6 0.00 0.00 0.00 29 1008.6
20260504193022 74 180 3.5 8.7 0.00 0.00 0.00 29 1008.7
20260504192016 73 113 3.5 7.8 0.00 0.00 0.00 32 1008.6
20260504191016 73 315 3.5 8.7 0.00 0.00 0.00 29 1008.9
20260504190017 72 315 2.6 7.0 0.00 0.00 0.00 29 1009.1
20260504185018 72 270 1.7 5.2 0.00 0.00 0.00 28 1009.2
20260504184037 73 180 2.6 7.0 0.00 0.00 0.00 31 1009.5
20260504183018 72 158 3.5 7.8 0.00 0.00 0.00 31 1009.6
20260504182018 71 45 1.7 5.2 0.00 0.00 0.00 31 1009.3
20260504181016 70 158 4.3 9.6 0.00 0.00 0.00 30 1009.8
20260504180019 70 180 1.7 6.1 0.00 0.00 0.00 32 1010.0
20260504175017 70 203 6.1 9.6 0.00 0.00 0.00 31 1010.1
20260504174017 70 203 4.3 7.0 0.00 0.00 0.00 33 1009.8
20260504173016 69 225 1.7 5.2 0.00 0.00 0.00 33 1010.0
20260504172018 69 158 1.7 7.8 0.00 0.00 0.00 35 1010.1
20260504171016 68 180 4.3 6.1 0.00 0.00 0.00 34 1010.0
20260504151018 60 23 0.9 2.6 0.00 0.00 0.00 48 1010.1
20260504141039 57 0.0 0.0 0.00 0.00 0.00 53 1010.3
20260504081018 61 90 1.7 7.0 0.00 0.00 0.00 35 1012.4